User: anonymous   Login
Location: Unspecified
(0.0000°N, 0.0000°E)
Time: 21:36:49
(UTC+00:00)
Language:

Sapphire - Orbit

View from above orbital plane
View from above orbital plane
View from above satellite
View from above satellite

Ground track
Ground track

The orbit data is extracted from the following two-line orbital elements,

1 26932U 01043D   18048.87428926 -.00000045 +00000-0 +14625-4 0  9999
2 26932 067.0559 179.9586 0003989 278.1800 081.8848 14.30272530855435
Epoch (UTC): 17 February 2018 20:58:58
Eccentricity: 0.0003989
inclination: 67.0559°
perigee height: 788 km
apogee height: 793 km
right ascension of ascending node: 179.9586°
argument of perigee: 278.1800°
revolutions per day: 14.30272530
mean anomaly at epoch: 81.8848°
orbit number at epoch: 85543

The dashed part of the orbit path shows where the satellite is in the earth's shadow,  

DLR